Location: Engelmannsreuth
(49.8125°N, 11.6497°E)
Time: 02:42:48
(UTC+00:00)

Cosmos 1633 Rocket - Pass Details

Date: 17 February 2020
Orbit: 608 x 622 km, 82.5° (Epoch: 05 April)

Event Time Altitude Azimuth Distance (km) Brightness Sun altitude
Rises 05:42:55 0° 347° (NNW) 2,889 6.2 -6.8°
Reaches altitude 10° 05:45:09 10° 344° (NNW) 1,981 5.4 -6.4°
Maximum altitude 05:49:28 61° 265° (W) 704 3.1 -5.8°
Drops below altitude 10° 05:53:46 10° 185° (S) 1,973 5.8 -5.1°
Sets 05:56:00 0° 182° (S) 2,875 6.6 -4.7°
